sat.trackr.live / text

‹ back to catalog

STARLINK-37425

NORAD 68815 · 2026-089P

PAYLOAD ACTIVE UNKNOWN

§ Identity

Operator
Country
US
Launch date
2026-04-23
Launch site
AFWTR
Launch vehicle
Mass (kg)
RCS (m²)

Purposes: comms

External: N2YO · Heavens-Above · Gunter

§ Orbital elements

Epoch: 2026-09-20T01:40:56.393760Z

Period
93.91 min
Inclination
97.2867°
Eccentricity
0.0001991
Mean motion
15.33446821 rev/d
Perigee alt
464.2 km
Apogee alt
466.9 km
Semi-major
6,843.7 km
B*
3.7796e-4
RAAN
108.8493°
Arg perigee
89.6423°
Mean anomaly
270.5048°
Rev number
2,319

§ Raw data

STARLINK-374251 68815U 26089P   26263.07009715  .00012148  00000+0  37796-3 0  99912 68815  97.2867 108.8493 0001991  89.6423 270.5048 15.33446821 23192

JSON: /api/v1/satellites/68815 · /tle

For live sub-satellite position, see the globe view (requires WebGL).

§ Visibility from observer

Set your observer location to see the next 7 days of passes ≥ 10°. The values pass through the URL so the page stays shareable.

No JS? Fill the form by hand. The geolocation button needs JavaScript.